This is the latest recevied weather packets stored in our database for station/object N4DBJ. If no packets are shown the sender has not sent any weather packets the latest 10 day(s).
| Time | Temp. | Humidity | Pressure | Rain* | Wind** | Luminosity | Snow |
|---|---|---|---|---|---|---|---|
| 1777388712 | 20.56° C | 93% | 1014.3 hPa | 0 mm | - | 117 W/m² | - |
| 1777388409 | 20.56° C | 93% | 1014.4 hPa | 0 mm | - | 99 W/m² | - |
| 1777388109 | 20.56° C | 93% | 1014.5 hPa | 0 mm | - | 163 W/m² | - |
| 1777387805 | 20.56° C | 92% | 1014.4 hPa | 0 mm | - | 149 W/m² | - |
| 1777387502 | 20.56° C | 93% | 1014.3 hPa | 0 mm | - | 189 W/m² | - |
| 1777387197 | 20.56° C | 93% | 1014.3 hPa | 0 mm | - | 203 W/m² | - |
| 1777386892 | 20.56° C | 93% | 1014.3 hPa | 0 mm | - | 158 W/m² | - |
| 1777386590 | 20.56° C | 93% | 1014.2 hPa | 0 mm | - | 208 W/m² | - |
| 1777386286 | 20.56° C | 93% | 1014.3 hPa | 0 mm | - | 481 W/m² | - |
| 1777385984 | 20° C | 94% | 1014 hPa | 0 mm | - | 595 W/m² | - |
| 1777385680 | 20° C | 98% | 1013.9 hPa | 0 mm | - | 345 W/m² | - |
| 1777385377 | 19.44° C | 98% | 1014 hPa | 0 mm | - | 220 W/m² | - |
| 1777385074 | 18.89° C | 99% | 1014 hPa | 0 mm | - | 493 W/m² | - |
| 1777384771 | 18.89° C | 99% | 1013.8 hPa | 0 mm | - | 477 W/m² | - |
| 1777384466 | 18.33° C | 99% | 1013.7 hPa | 0 mm | - | 372 W/m² | - |
| 1777384161 | 18.33° C | 99% | 1013.8 hPa | 0 mm | - | 375 W/m² | - |
| 1777383858 | 17.78° C | 99% | 1013.7 hPa | 0 mm | - | 283 W/m² | - |
| 1777383555 | 18.33° C | 99% | 1013.7 hPa | 0 mm | - | 161 W/m² | - |
| 1777383251 | 17.78° C | 99% | 1013.4 hPa | 0 mm | - | 260 W/m² | - |
| 1777382947 | 17.78° C | 99% | 1013.6 hPa | 0 mm | - | 101 W/m² | - |
| 1777382643 | 17.78° C | 99% | 1013.5 hPa | 0 mm | - | 97 W/m² | - |
| 1777382338 | 17.22° C | 99% | 1013.5 hPa | 0 mm | - | 103 W/m² | - |
| 1777382035 | 17.22° C | 99% | 1013.5 hPa | 0 mm | - | 93 W/m² | - |
| 1777381731 | 17.22° C | 99% | 1013.6 hPa | 0 mm | - | 91 W/m² | - |
| 1777381425 | 17.22° C | 99% | 1013.4 hPa | 0 mm | - | 96 W/m² | - |
* Rain latest hour (hover to see other rain measurements)
** Current wind speed in m/s (hover to see current wind gust speed)